Location: Unspecified
(0.0000°N, 0.0000°E)
Time: 10:04:02
(UTC+00:00)

deb Explorer IX - Pass Details

Date: 13 December 2018
Orbit: 538 x 1115 km, 38.8° (Epoch: 17 January)

Event Time Altitude Azimuth Distance (km) Brightness Sun altitude
Rises 16:37:53 0° 258° (WSW) 3,188 ? 17.5°
Reaches altitude 10° 16:41:17 10° 278° (W) 2,138 ? 16.7°
Maximum altitude 16:44:23 17° 317° (NW) 1,638 ? 16.0°
Drops below altitude 10° 16:47:15 10° 357° (N) 1,943 ? 15.4°
Sets 16:50:09 0° 19° (NNE) 2,766 ? 14.7°
